{"data":{"norad_id":66478,"intl_designator":"2025-262Y","name":"STARLINK-35283","alt_names":[],"object_type":"PAYLOAD","status":"ACTIVE","operator":null,"country":"US","launch_date":"2025-11-15","launch_site_code":"AFETR","launch_vehicle":null,"mission":null,"orbit_class":"UNKNOWN","rcs_meters":null,"size_class":null,"mass_kg":null,"dimensions":null,"purposes":["comms"],"wikipedia_slug":null,"has_3d_model":false,"image_url":null,"decayed_at":null,"tle_current":{"epoch":"2026-09-20T08:18:23.344128Z","epoch_age_seconds":103196,"freshness":"FRESH","line1":"1 66478U 25262Y   26263.34610352  .00007450  00000+0  27995-3 0  9991","line2":"2 66478  42.9995 277.0974 0001486 281.7906  78.2779 15.27583299 48675","mean_motion":15.27583299,"eccentricity":0.0001486,"inclination_deg":42.9995,"raan_deg":277.0974,"arg_perigee_deg":281.7906,"mean_anomaly_deg":78.2779,"bstar":0.00027995,"rev_number":4867,"period_min":94.266545133262,"perigee_km":482.01964687868,"apogee_km":484.05878845057,"semimajor_km":6861.1762176646,"source":"CELESTRAK","updated_at":"2026-09-21T09:00:35.916980Z"}}}